Location: Copeville
(33.0796°N, 96.4155°W)
Time: 00:06:12
(UTC+00:00)

ISS - Pass Details

Date: 23 June 2024
Orbit: 409 x 423 km, 51.6° (Epoch: 23 July)

Event Time Altitude Azimuth Distance (km) Brightness Sun altitude
Exits shadow 09:27:59 66° 282° (WNW) 453 -3.8 -19.1°
Maximum altitude 09:28:13 70° 316° (NW) 441 -3.8 -19.0°
Drops below altitude 10° 09:31:33 10° 42° (NE) 1,489 0.3 -18.6°
Sets 09:33:34 0° 44° (NE) 2,318 1.7 -18.3°
